Regional Weather Roundup
Issued by NWS Newport/Morehead, NC

Current Version | Previous Version | Text Only | Print | Product List | Glossary Off
Versions: 1 2 3 4 5 6 7 8 9 10 11 12 13 14 15 16 17 18 19 20 21 22 23 24 25 26 27 28 29 30 31 32 33 34 35 36 37 38 39 40 41 42 43 44 45 46 47 48 49 50
000 ASUS42 KMHX 181225 RWRMHX WEATHER ROUNDUP FOR EASTERN NORTH CAROLINA NATIONAL WEATHER SERVICE NEWPORT/MOREHEAD CITY NC 800 AM EDT WED OCT 18 2017 NOTE: "FAIR" INDICATES FEW OR NO CLOUDS BELOW 12,000 FEET WITH NO SIGNIFICANT WEATHER AND/OR OBSTRUCTIONS TO VISIBILITY NCZ015>017-031-032-045>047-102-103-181300- NORTH COAST CITY SKY/WX TMP DP RH WIND PRES REMARKS EDENTON CLEAR 48 46 90 CALM 30.37 ELIZABETH CITY CLEAR 53 50 89 N8 30.35R KITTY HAWK PTSUNNY 60 48 65 NE5 30.32R MANTEO MOCLDY N/A N/A N/A NE10 30.34R $$ NCZ045>047-081-094-103-104-181300- CENTRAL COAST CITY SKY/WX TMP DP RH WIND PRES REMARKS FRISCO CLEAR 62 51 67 NE8 30.30R $$ NCZ095-097-098-100-101-181300- SOUTHERN COAST CITY SKY/WX TMP DP RH WIND PRES REMARKS BEAUFORT CLEAR 55 52 89 N8 30.31R CEDAR ISLAND NOT AVBL JACKSONVILLE CLEAR 50 47 89 N6 30.33R PINEY ISLAND N/A N/A N/A N/A NE16G22 30.30R WILMINGTON MOCLDY 51 47 86 N9 30.32R $$ NCZ011>013-027>030-043-044-078>080-089-090>093-098-181300- COASTAL PLAIN CITY SKY/WX TMP DP RH WIND PRES REMARKS AHOSKIE CLEAR 38 38 99 CALM 30.37S CLINTON CLEAR 44 43 97 CALM 30.36R ELIZABETHTOWN NOT AVBL GOLDSBORO CLEAR 45 42 87 CALM 30.34R GREENVILLE CLEAR 41 41 100 CALM 30.36S FOG HAVELOCK CLEAR 55 52 89 N9 30.33R KENANSVILLE CLEAR 41 41 100 N3 30.35R FOG KINSTON CLEAR 41 41 100 N5 30.36R NEW BERN CLEAR 51 48 89 N7 30.35R RICHLANDS CLEAR 47 44 90 NE6 30.34R ROCKY MOUNT CLEAR 41 40 96 CALM 30.37R WASHINGTON CLEAR 46 44 90 N7 30.36R WHITEVILLE CLEAR 46 43 87 N3 30.33R $$ AMZ130-135-150-152-154-156-158-170-250-252-270-ANZ085-086-088-633-658-670-181300- MARINE OBSERVATIONS STATION/POSITION TIME TEMP WIND PRES WAVE SWELL AIR SEA DIR/SP/G HT/PER HT/PER (UTC) (F) (DEG/KT/KT) (MB) (FT/S) (FT/S) CHESAPEAKE LIGHT NOT AVBL 64 E VA BEACH 1150 62 67 50/ 12/ 16 1027.5 4/ 8 3/ 8 DUCK 1200 61 68 60/ 14/ 16 1027.1 2 E DUCK 1200 70 N/A 4/ 8 2/11 OREGON INLET 1200 63 64 40/ 10/ 17 1026.5 13E OREGON INLT 1148 71 N/A 5/ 8 5/ 8 HATTERAS CG 1200 63 67 30/ 11/ 19 1025.8 DIAMOND BUOY 1150 68 81 20/ 17/ 21 1024.7 6/ 8 3/10 CAPE LOOKOUT 1200 59 360/ 12/ 16 1025.7 BEAUFORT LAB 1200 57 68 10/ 6/ 11 1026.5 30 SE NEW RVR IN 1208 66 40/ 21/ 27 1024.7 30 SE NEW RVR IN NOT AVBL 27 SE WRIGHTSVLE 1208 65 77 60/ 17/ 23 1024.9 5 SE WRIGHTSVLE 1208 60 74 30/ 16/ 23 1026.2 225 S CAPE HAT 1150 73 80 50/ 17/ 21 1019.9 9/ 9 5/ 9 41 SE CHARLESTON 1210 71 80 30/ 19/ 23 1022.9 $$

USA.gov is the U.S. government's official web portal to all federal, state and local government web resources and services.